This is the latest recevied weather packets stored in our database for station/object DB2AG-10. If no packets are shown the sender has not sent any weather packets the latest 10 day(s).
| Time | Temp. | Humidity | Pressure | Rain* | Wind** | Luminosity | Snow |
|---|---|---|---|---|---|---|---|
| 1777928556 | 22.78° C | 40% | 1014.4 hPa | - | - | - | - |
| 1777927656 | 23.33° C | 40% | 1014.5 hPa | - | - | - | - |
| 1777926756 | 23.33° C | 40% | 1014.6 hPa | - | - | - | - |
| 1777925856 | 23.33° C | 40% | 1014.6 hPa | - | - | - | - |
| 1777924956 | 23.33° C | 40% | 1014.3 hPa | - | - | - | - |
| 1777924055 | 23.89° C | 40% | 1014.4 hPa | - | - | - | - |
| 1777923155 | 23.89° C | 40% | 1014.3 hPa | - | - | - | - |
| 1777922255 | 23.89° C | 39% | 1014.1 hPa | - | - | - | - |
| 1777921355 | 24.44° C | 40% | 1013.9 hPa | - | - | - | - |
| 1777920455 | 24.44° C | 39% | 1013.7 hPa | - | - | - | - |
| 1777919555 | 24.44° C | 39% | 1013.4 hPa | - | - | - | - |
| 1777918655 | 24.44° C | 39% | 1013 hPa | - | - | - | - |
| 1777917755 | 25° C | 39% | 1012.9 hPa | - | - | - | - |
| 1777916855 | 25° C | 38% | 1012.8 hPa | - | - | - | - |
| 1777915954 | 25° C | 39% | 1012.8 hPa | - | - | - | - |
| 1777915054 | 25° C | 38% | 1012.5 hPa | - | - | - | - |
| 1777914154 | 25.56° C | 39% | 1012.5 hPa | - | - | - | - |
| 1777913254 | 25.56° C | 39% | 1012.6 hPa | - | - | - | - |
| 1777912354 | 25.56° C | 38% | 1012.6 hPa | - | - | - | - |
| 1777911454 | 25.56° C | 38% | 1012.6 hPa | - | - | - | - |
| 1777910554 | 25.56° C | 38% | 1012.6 hPa | - | - | - | - |
| 1777909654 | 25.56° C | 38% | 1012.6 hPa | - | - | - | - |
| 1777908753 | 25.56° C | 38% | 1012.7 hPa | - | - | - | - |
| 1777907853 | 25° C | 38% | 1012.6 hPa | - | - | - | - |
| 1777906953 | 25° C | 38% | 1012.8 hPa | - | - | - | - |
* Rain since midnight (hover to see other rain measurements)
** Current wind speed in m/s (hover to see current wind gust speed)